Ladysmith, WI

4:17 AM CDT on June 28, 2017 (GMT -0500)
Rusk County

Weather History for KRCX - September, 2013

Change the Weather History Date:

Sunday, September 22, 2013

  Actual Average (KPBH) Record (KPBH)
Temperature  
Mean Temperature 48 °F -  
Max Temperature 63 °F 62 °F 80 °F (2004)
Min Temperature 34 °F 43 °F 32 °F (1998)
Degree Days  
Heating Degree Days 16    
Moisture  
Dew Point 40 °F    
Average Humidity 74    
Maximum Humidity 97    
Minimum Humidity 46    
Precipitation  
Precipitation 0.00 in - - ()
Sea Level Pressure  
Sea Level Pressure 30.04 in    
Wind  
Wind Speed 4 mph (ESE)    
Max Wind Speed 10 mph    
Max Gust Speed 16 mph    
Visibility 10 miles    
Events      
Averages and records for this station are not official NWS values.
T = Trace of Precipitation, MM = Missing Value Source: NWS Daily Summary

Daily Weather History Graph

Daily Weather History Graph

Search for Another Location

Airport or City:

Trip Planner

Search our weather history database for the weather conditions in past years. The results will help you decide how hot, cold, wet, or windy it might be!

Date:

Astronomy

Sep. 22, 2013 Rise Set
Actual Time 6:51 AM CDT 7:01 PM CDT
Civil Twilight 6:21 AM CDT 7:30 PM CDT
Nautical Twilight 5:46 AM CDT 8:05 PM CDT
Astronomical Twilight 5:11 AM CDT 8:40 PM CDT
Moon 8:38 PM CDT (9/22) 10:23 AM CDT (9/22)
Length of Visible Light 13h 08m
Length of Day
12h 09m
Waning Gibbous, 88% of the Moon is Illuminated
Sep 22
Waning Gibbous
Sep 26
Last Quarter
Oct 4
New
Oct 11
First Quarter
Oct 18
Full

Hourly Weather History & Observations

Time (CDT) Temp. Windchill Dew Point Humidity Pressure Visibility Wind Dir Wind Speed Gust Speed Precip Events Conditions
12:15 AM 41.9 °F 40.0 °F 39.9 °F 93% 30.01 in 10.0 mi East 3.5 mph - N/A   Clear
12:35 AM 41.5 °F 38.6 °F 39.6 °F 93% 30.01 in 10.0 mi East 4.6 mph - N/A   Clear
12:55 AM 40.3 °F - 38.5 °F 93% 30.02 in 10.0 mi Calm Calm - N/A   Clear
1:15 AM 40.1 °F 38.0 °F 38.5 °F 94% 30.02 in 10.0 mi East 3.5 mph - N/A   Clear
1:35 AM 39.7 °F 37.6 °F 38.3 °F 95% 30.02 in 10.0 mi East 3.5 mph - N/A   Clear
1:55 AM 39.2 °F - 37.9 °F 95% 30.03 in 10.0 mi Calm Calm - N/A   Clear
2:15 AM 39.2 °F 37.0 °F 37.9 °F 95% 30.03 in 10.0 mi ENE 3.5 mph - N/A   Clear
2:35 AM 38.3 °F 34.8 °F 36.9 °F 95% 30.03 in 10.0 mi ENE 4.6 mph - N/A   Clear
2:55 AM 38.7 °F 36.3 °F 37.6 °F 96% 30.03 in 10.0 mi East 3.5 mph - N/A   Clear
3:15 AM 38.3 °F 35.9 °F 37.0 °F 95% 30.03 in 10.0 mi East 3.5 mph - N/A   Clear
3:35 AM 38.3 °F 34.8 °F 37.0 °F 95% 30.03 in 10.0 mi East 4.6 mph - N/A   Clear
3:55 AM 38.3 °F 34.8 °F 36.9 °F 95% 30.03 in 10.0 mi East 4.6 mph - N/A   Clear
4:15 AM 38.3 °F - 36.9 °F 95% 30.05 in 10.0 mi Calm Calm - N/A   Clear
4:35 AM 36.9 °F 34.3 °F 35.6 °F 95% 30.04 in 10.0 mi East 3.5 mph - N/A   Clear
4:55 AM 36.9 °F - 35.8 °F 96% 30.04 in 10.0 mi Calm Calm - N/A   Clear
5:15 AM 37.0 °F 34.5 °F 36.0 °F 96% 30.04 in 10.0 mi East 3.5 mph - N/A   Clear
5:35 AM 36.7 °F - 35.8 °F 97% 30.04 in 10.0 mi Calm Calm - N/A   Clear
5:55 AM 36.9 °F - 36.0 °F 97% 30.05 in 10.0 mi Calm Calm - N/A   Clear
6:15 AM 36.5 °F - 35.6 °F 97% 30.06 in 10.0 mi Calm Calm - N/A   Clear
6:35 AM 35.6 °F - 34.3 °F 95% 30.07 in 10.0 mi Calm Calm - N/A   Clear
6:55 AM 34.0 °F - 33.1 °F 96% 30.07 in 10.0 mi Calm Calm - N/A   Clear
7:15 AM 34.9 °F - 34.2 °F 97% 30.07 in 10.0 mi Calm Calm - N/A   Clear
7:35 AM 35.1 °F 32.2 °F 34.2 °F 97% 30.07 in 10.0 mi East 3.5 mph - N/A   Clear
7:55 AM 37.8 °F 35.3 °F 36.9 °F 97% 30.08 in 10.0 mi East 3.5 mph - N/A   Clear
8:15 AM 39.4 °F 35.2 °F 37.6 °F 93% 30.08 in 10.0 mi East 5.8 mph - N/A   Clear
8:35 AM 41.0 °F 38.0 °F 38.3 °F 90% 30.09 in 10.0 mi East 4.6 mph - N/A   Clear
8:55 AM 43.0 °F 41.3 °F 39.4 °F 87% 30.09 in 10.0 mi ESE 3.5 mph - N/A   Clear
9:15 AM 45.0 °F 42.6 °F 39.4 °F 81% 30.09 in 10.0 mi SE 4.6 mph - N/A   Clear
9:35 AM 47.3 °F - 37.9 °F 70% 30.09 in 10.0 mi SE 8.1 mph - N/A   Clear
9:55 AM 48.7 °F - 38.5 °F 68% 30.09 in 10.0 mi ESE 10.4 mph - N/A   Clear
10:15 AM 50.0 °F - 39.4 °F 67% 30.09 in 10.0 mi ESE 9.2 mph - N/A   Clear
10:35 AM 51.3 °F - 40.5 °F 67% 30.09 in 10.0 mi ESE 8.1 mph - N/A   Clear
10:55 AM 53.2 °F - 40.1 °F 61% 30.08 in 10.0 mi SE 9.2 mph - N/A   Clear
11:15 AM 53.8 °F - 39.0 °F 57% 30.08 in 10.0 mi ESE 4.6 mph - N/A   Clear
11:35 AM 55.8 °F - 41.0 °F 58% 30.08 in 10.0 mi South 5.8 mph - N/A   Clear
11:55 AM 56.3 °F - 40.1 °F 55% 30.07 in 10.0 mi SSE 4.6 mph - N/A   Clear
12:15 PM 57.2 °F - 41.5 °F 56% 30.06 in 10.0 mi SSE 5.8 mph - N/A   Clear
12:35 PM 57.9 °F - 41.4 °F 54% 30.06 in 10.0 mi ESE 6.9 mph - N/A   Clear
12:55 PM 59.4 °F - 42.4 °F 54% 30.05 in 10.0 mi SE 6.9 mph - N/A   Clear
1:15 PM 59.5 °F - 43.2 °F 55% 30.05 in 10.0 mi SE 8.1 mph - N/A   Clear
1:35 PM 59.9 °F - 42.1 °F 52% 30.04 in 10.0 mi SE 6.9 mph - N/A   Clear
1:55 PM 60.6 °F - 42.4 °F 51% 30.03 in 10.0 mi SSE 6.9 mph - N/A   Clear
2:15 PM 61.2 °F - 43.0 °F 51% 30.02 in 10.0 mi SSE 6.9 mph - N/A   Clear
2:35 PM 62.1 °F - 42.6 °F 49% 30.02 in 10.0 mi ESE 6.9 mph - N/A   Clear
2:55 PM 63.1 °F - 43.3 °F 48% 30.01 in 10.0 mi SE 10.4 mph 16.1 mph N/A   Clear
3:15 PM 63.1 °F - 42.8 °F 47% 30.01 in 10.0 mi SSE 8.1 mph - N/A   Clear
3:35 PM 62.8 °F - 42.8 °F 48% 30.00 in 10.0 mi South 8.1 mph - N/A   Clear
3:55 PM 63.0 °F - 43.2 °F 48% 30.00 in 10.0 mi SSE 8.1 mph - N/A   Clear
4:15 PM 63.5 °F - 42.4 °F 46% 30.00 in 10.0 mi SSE 5.8 mph - N/A   Clear
4:35 PM 63.3 °F - 43.3 °F 48% 29.99 in 10.0 mi SSE 6.9 mph - N/A   Clear
4:55 PM 63.5 °F - 43.2 °F 47% 29.99 in 10.0 mi ESE 9.2 mph - N/A   Clear
5:15 PM 62.8 °F - 43.2 °F 49% 29.99 in 10.0 mi SE 9.2 mph - N/A   Clear
5:35 PM 62.6 °F - 43.5 °F 50% 29.99 in 10.0 mi SE 6.9 mph - N/A   Clear
5:55 PM 61.9 °F - 43.9 °F 52% 29.99 in 10.0 mi SE 6.9 mph - N/A   Clear
6:15 PM 61.2 °F - 44.1 °F 53% 29.99 in 10.0 mi SE 6.9 mph - N/A   Clear
6:35 PM 59.9 °F - 44.2 °F 56% 29.99 in 10.0 mi SE 5.8 mph - N/A   Clear
6:55 PM 58.1 °F - 44.6 °F 61% 29.99 in 10.0 mi ESE 4.6 mph - N/A   Clear
7:15 PM 55.8 °F - 45.5 °F 68% 30.00 in 10.0 mi ESE 4.6 mph - N/A   Clear
7:35 PM 54.1 °F - 45.1 °F 72% 30.00 in 10.0 mi ESE 6.9 mph - N/A   Clear
7:55 PM 53.6 °F - 44.6 °F 72% 30.01 in 10.0 mi ESE 6.9 mph - N/A   Clear
8:15 PM 53.1 °F - 44.2 °F 72% 30.01 in 10.0 mi ESE 5.8 mph - N/A   Clear
8:35 PM 52.7 °F - 44.1 °F 72% 30.02 in 10.0 mi ESE 5.8 mph - N/A   Clear
8:55 PM 52.2 °F - 43.7 °F 73% 30.02 in 10.0 mi ESE 5.8 mph - N/A   Clear
9:15 PM 51.8 °F - 43.3 °F 73% 30.02 in 10.0 mi ESE 6.9 mph - N/A   Clear
9:35 PM 51.4 °F - 43.2 °F 73% 30.02 in 10.0 mi ESE 6.9 mph - N/A   Clear
9:55 PM 50.9 °F - 43.2 °F 75% 30.02 in 10.0 mi ESE 5.8 mph - N/A   Clear
10:15 PM 50.0 °F - 43.0 °F 77% 30.02 in 10.0 mi ESE 6.9 mph - N/A   Clear
10:35 PM 49.5 °F - 43.0 °F 78% 30.03 in 10.0 mi ESE 5.8 mph - N/A   Clear
10:55 PM 49.1 °F - 42.8 °F 79% 30.02 in 10.0 mi ESE 6.9 mph - N/A   Clear
11:15 PM 48.9 °F - 42.8 °F 79% 30.02 in 10.0 mi ESE 5.8 mph - N/A   Clear
11:35 PM 48.6 °F - 42.6 °F 80% 30.03 in 10.0 mi SE 4.6 mph - N/A   Clear
11:55 PM 48.2 °F - 42.4 °F 80% 30.03 in 10.0 mi ESE 5.8 mph - N/A   Clear